Location: Shannon
(40.5500°S, 175.4167°E)
Time: 20:44:43
(UTC+00:00)

NOAA 11 - Pass Details

Date: 17 November 2025
Orbit: 831 x 848 km, 98.6° (Epoch: 14 December)

Event Time Altitude Azimuth Distance (km) Brightness Sun altitude
Exits shadow 14:29:05 44° 308° (NW) 1,152 4.4 -21.4°
Maximum altitude 14:29:59 48° 279° (W) 1,090 4.4 -21.3°
Drops below altitude 10° 14:35:18 10° 205° (SSW) 2,478 7.0 -20.7°
Sets 14:37:47 0° 199° (SSW) 3,423 7.8 -20.4°
